Аэропорт
Сыктывкар (UUYY)

 UUYY / SCW
ЗЦ Санкт-Петербург
Сыктывкар (UUYY)
Сыктывкар (UUYY)
 61.64700, 50.84510  / 342 ft

 UUYY 261230Z 21004MPS 9999 -SHRA SCT008 BKN016CB 00/M00 Q1016 R18/520243 NOSIG RMK QFE753/1005
 TAF UUYY 260800Z 2609/2709 20004G10MPS 6000 BKN007 BKN017CB TEMPO 2609/2618 3100 -SHSNRA BR SCT005 BKN016CB FM261800 18003MPS 6000 BKN006 BKN017CB TEMPO 2618/2709 1000 SHSN BR BKN003 BKN016CB
UUYY_j_0220
показать схемы
Название сценария Тип сценария Flight Simulator 9 Flight Simulator X Prepar3D v2 Prepar3D v3 Prepar3D v4 Prepar3D v5 xPlane
UUYY-syktyvkar_FS9 бесплатный
UUYY_FSXP3Dv2 бесплатный

Аэродром "Сыктывкар" (UUYY)

Рекомендованные сценарии:

FS2004 от Aniter

P3D/FSX от Aniter 

Схемы:

АИП

Средства связи ОВД:

UUYY_R_APP - Сивкар-Круг - 124.600

UUYY_TWR - Сивкар-Старт - 124.600

UUYY_ATIS - Сивкар-АТИС (русский, английский) - 126.600



2020 © VATRUS division (Privacy Policy)